Terminal Aerodrome Forecast
Issued by NWS

Home | Current Version | Previous Version | Text Only | Print | Product List | Glossary On
Versions: 1 2 3 4 5 6 7 8 9 10 11 12 13 14 15 16 17 18 19 20 21 22 23 24 25 26 27
000
FTUS46 KMTR 040320 AAA
TAFSFO
TAF AMD
KSFO 040320Z 0403/0506 25015G18KT P6SM SCT200
     FM040400 29013KT P6SM FEW015
     FM040600 29010KT P6SM BKN015
     FM040800 29008KT P6SM OVC012
     FM041800 26008KT P6SM FEW012 SCT015
     FM042000 24012KT P6SM FEW015 SCT200=

USA.gov is the U.S. government's official web portal to all federal, state and local government web resources and services.